Location: Newark
(49.8348°N, 24.0280°E)
Time: 04:01:30
(UTC+00:00)

Transit 2A - Pass Details

Date: 24 January 2020
Orbit: 600 x 959 km, 66.7° (Epoch: 17 February)

Event Time Altitude Azimuth Distance (km) Brightness Sun altitude
Rises 20:09:41 0° 250° (WSW) 2,864 - -47.8°
Reaches altitude 10° 20:12:13 10° 263° (W) 1,948 - -48.1°
Maximum altitude 20:15:55 27° 322° (NW) 1,181 - -48.6°
Drops below altitude 10° 20:19:40 10° 20° (NNE) 1,974 - -49.1°
Sets 20:22:16 0° 33° (NNE) 2,911 - -49.4°
